Location: *
(50.3440°N, 18.6237°E)
Time: 17:17:49
(UTC+00:00)

Cosmos 1666 Rocket - Pass Details

Date: 30 November 2020
Orbit: 604 x 632 km, 82.5° (Epoch: 22 January)

Event Time Altitude Azimuth Distance (km) Brightness Sun altitude
Rises 15:41:53 0° 352° (N) 2,908 6.8 -8.7°
Reaches altitude 10° 15:44:08 10° 356° (N) 2,001 6.0 -9.0°
Maximum altitude 15:48:32 62° 77° (ENE) 707 3.6 -9.7°
Drops below altitude 10° 15:52:56 10° 159° (SSE) 2,002 6.2 -10.3°
Sets 15:55:12 0° 163° (SSE) 2,908 7.1 -10.7°
